^^
Datos históricos de la estación: Murcia-Puente Tocinos
Diario Informe para Agosto 11, 2019 Unidades:  Métrico    Inglés   Ambas
Diario Semanal Mensual Anual Configurable
  Máximo: Mínimo: Media:
Temperatura: 34.3 °C 24.7 °C 29 °C
Punto de rocio: 24.0 °C 20.1 °C 22.5 °C
Humedad: 87% 46% 69%
Velocidad viento: 19.0km/h 0.0km/h 7.9km/h
Racha viento: 31.5km/h - -
Viento- - East
Presión: 1012.8 hPa 1008.5 hPa -
Precipitación: 0.0 mm    
Historical Graphs
 
 
Tabla de datos para Agosto 11, 2019
Hora Temperatura Punto de rocio Presión Viento Velocidad viento Racha viento Humedad Intensidad lluvia(por hora) Nubes
00:15 27.9 °C 22.6 °C 1012.8 hPa NE 5.8 km/h 16.7 km/h 73% 0.0 mm CLR
00:20 27.9 °C 22.6 °C 1012.8 hPa NNE 5.0 km/h 7.4 km/h 73% 0.0 mm CLR
00:24 27.8 °C 22.5 °C 1012.8 hPa NE 5.0 km/h 7.6 km/h 73% 0.0 mm CLR
00:29 27.8 °C 22.5 °C 1012.8 hPa ENE 6.4 km/h 8.7 km/h 73% 0.0 mm CLR
00:34 27.8 °C 22.7 °C 1012.6 hPa NNE 6.4 km/h 9.3 km/h 74% 0.0 mm CLR
00:39 27.7 °C 22.9 °C 1012.6 hPa NNE 5.8 km/h 9.3 km/h 75% 0.0 mm CLR
00:44 27.6 °C 22.8 °C 1012.6 hPa North 5.8 km/h 7.4 km/h 75% 0.0 mm CLR
00:49 27.5 °C 22.7 °C 1012.5 hPa North 5.8 km/h 7.4 km/h 75% 0.0 mm CLR
00:54 27.4 °C 22.8 °C 1012.5 hPa NNE 5.8 km/h 7.4 km/h 76% 0.0 mm CLR
00:59 27.3 °C 22.9 °C 1012.5 hPa NE 6.4 km/h 7.4 km/h 77% 0.0 mm CLR
01:04 27.2 °C 22.8 °C 1012.6 hPa NNE 6.4 km/h 9.3 km/h 77% 0.0 mm CLR
01:09 27.2 °C 23.1 °C 1012.6 hPa NW 5.0 km/h 5.6 km/h 78% 0.0 mm CLR
01:14 27.2 °C 23.1 °C 1012.6 hPa NNE 5.0 km/h 7.4 km/h 78% 0.0 mm CLR
01:19 27.1 °C 22.9 °C 1012.7 hPa NNE 4.7 km/h 7.4 km/h 78% 0.0 mm CLR
01:24 27.0 °C 23.1 °C 1012.7 hPa North 4.7 km/h 7.4 km/h 79% 0.0 mm CLR
01:29 26.9 °C 23.2 °C 1012.7 hPa North 5.8 km/h 7.4 km/h 80% 0.0 mm CLR
01:34 26.9 °C 23.2 °C 1012.7 hPa NE 5.8 km/h 7.4 km/h 80% 0.0 mm CLR
01:39 26.9 °C 23.2 °C 1012.7 hPa NNE 4.7 km/h 7.4 km/h 80% 0.0 mm CLR
01:44 26.9 °C 23.2 °C 1012.7 hPa NE 4.7 km/h 7.4 km/h 80% 0.0 mm CLR
01:49 26.9 °C 23.2 °C 1012.6 hPa NNE 4.7 km/h 7.4 km/h 80% 0.0 mm CLR
01:54 26.8 °C 23.1 °C 1012.6 hPa North 4.7 km/h 7.4 km/h 80% 0.0 mm CLR
01:59 26.7 °C 23.2 °C 1012.6 hPa North 5.0 km/h 7.4 km/h 81% 0.0 mm CLR
02:04 26.7 °C 23.2 °C 1012.6 hPa NE 5.0 km/h 7.4 km/h 81% 0.0 mm CLR
02:09 26.6 °C 23.3 °C 1012.6 hPa ENE 5.0 km/h 9.3 km/h 82% 0.0 mm CLR
02:14 26.5 °C 23.2 °C 1012.6 hPa NE 5.0 km/h 7.4 km/h 82% 0.0 mm CLR
02:19 26.5 °C 23.2 °C 1012.4 hPa ENE 5.8 km/h 7.4 km/h 82% 0.0 mm CLR
02:24 26.5 °C 23.2 °C 1012.4 hPa North 5.8 km/h 7.6 km/h 82% 0.0 mm CLR
02:29 26.5 °C 23.2 °C 1012.4 hPa North 5.0 km/h 7.4 km/h 82% 0.0 mm CLR
02:34 26.4 °C 22.9 °C 1012.3 hPa North 5.0 km/h 7.4 km/h 81% 0.0 mm CLR
02:39 26.3 °C 22.8 °C 1012.3 hPa NNE 5.0 km/h 7.4 km/h 81% 0.0 mm CLR
02:44 26.3 °C 22.8 °C 1012.3 hPa NNE 5.0 km/h 9.3 km/h 81% 0.0 mm CLR
02:49 26.2 °C 22.9 °C 1012.1 hPa ENE 5.8 km/h 9.3 km/h 82% 0.0 mm CLR
02:54 26.2 °C 22.9 °C 1012.1 hPa ENE 5.8 km/h 9.3 km/h 82% 0.0 mm CLR
02:59 26.1 °C 22.8 °C 1012.1 hPa NNE 5.8 km/h 8.4 km/h 82% 0.0 mm CLR
03:04 26.1 °C 22.6 °C 1011.8 hPa NE 5.8 km/h 7.4 km/h 81% 0.0 mm CLR
03:09 26.0 °C 22.7 °C 1011.8 hPa NE 5.8 km/h 7.4 km/h 82% 0.0 mm CLR
03:14 25.9 °C 22.4 °C 1011.8 hPa NNE 5.8 km/h 7.4 km/h 81% 0.0 mm CLR
03:19 25.8 °C 22.1 °C 1011.5 hPa NE 5.0 km/h 9.3 km/h 80% 0.0 mm CLR
03:24 25.8 °C 22.1 °C 1011.5 hPa NE 5.0 km/h 7.4 km/h 80% 0.0 mm CLR
03:29 25.8 °C 22.3 °C 1011.5 hPa NE 5.0 km/h 7.4 km/h 81% 0.0 mm CLR
03:34 25.9 °C 22.4 °C 1011.4 hPa NE 5.0 km/h 5.6 km/h 81% 0.0 mm CLR
03:39 25.9 °C 22.6 °C 1011.4 hPa ENE 4.7 km/h 7.4 km/h 82% 0.0 mm CLR
03:44 25.9 °C 22.6 °C 1011.4 hPa ENE 4.7 km/h 7.4 km/h 82% 0.0 mm CLR
03:49 25.9 °C 22.6 °C 1011.3 hPa NE 3.9 km/h 7.4 km/h 82% 0.0 mm CLR
03:54 25.9 °C 22.6 °C 1011.3 hPa North 3.9 km/h 5.8 km/h 82% 0.0 mm CLR
03:59 25.9 °C 22.4 °C 1011.3 hPa NNW 3.2 km/h 3.7 km/h 81% 0.0 mm CLR
04:04 25.8 °C 22.3 °C 1011.3 hPa ENE 3.2 km/h 5.6 km/h 81% 0.0 mm CLR
04:09 25.8 °C 22.5 °C 1011.3 hPa NNW 2.3 km/h 3.7 km/h 82% 0.0 mm CLR
04:14 25.9 °C 22.6 °C 1011.3 hPa NNW 2.3 km/h 3.7 km/h 82% 0.0 mm CLR
04:19 25.9 °C 22.6 °C 1011.0 hPa North 2.3 km/h 4.7 km/h 82% 0.0 mm CLR
04:24 25.9 °C 22.6 °C 1011.0 hPa NNW 2.3 km/h 3.7 km/h 82% 0.0 mm CLR
04:29 25.8 °C 22.5 °C 1011.0 hPa NNW 2.3 km/h 3.7 km/h 82% 0.0 mm CLR
04:34 25.8 °C 22.5 °C 1010.8 hPa NNE 2.3 km/h 4.7 km/h 82% 0.0 mm CLR
04:39 25.8 °C 22.7 °C 1010.8 hPa East 2.9 km/h 4.7 km/h 83% 0.0 mm CLR
04:44 25.8 °C 22.7 °C 1010.8 hPa ESE 2.9 km/h 5.8 km/h 83% 0.0 mm CLR
04:49 25.8 °C 22.7 °C 1010.9 hPa ENE 2.9 km/h 7.4 km/h 83% 0.0 mm CLR
04:54 25.8 °C 22.7 °C 1010.9 hPa ESE 2.9 km/h 7.4 km/h 83% 0.0 mm CLR
04:59 25.8 °C 22.7 °C 1010.9 hPa ESE 4.7 km/h 7.4 km/h 83% 0.0 mm CLR
05:04 25.7 °C 22.6 °C 1011.0 hPa ESE 4.7 km/h 5.6 km/h 83% 0.0 mm CLR
05:09 25.6 °C 22.3 °C 1011.0 hPa ESE 3.2 km/h 3.9 km/h 82% 0.0 mm CLR
05:14 25.6 °C 21.9 °C 1011.0 hPa East 3.2 km/h   80% 0.0 mm CLR
05:19 25.6 °C 22.3 °C 1010.8 hPa Calm     82% 0.0 mm CLR
05:24 25.7 °C 22.6 °C 1010.8 hPa Calm     83% 0.0 mm CLR
05:29 25.8 °C 22.5 °C 1010.8 hPa SE 2.9 km/h 9.3 km/h 82% 0.0 mm CLR
05:34 25.8 °C 22.3 °C 1011.0 hPa ESE 2.9 km/h 3.9 km/h 81% 0.0 mm CLR
05:39 25.8 °C 22.1 °C 1011.0 hPa NE 3.2 km/h   80% 0.0 mm CLR
05:44 25.6 °C 21.5 °C 1011.0 hPa NE 3.2 km/h   78% 0.0 mm CLR
05:49 25.6 °C 21.5 °C 1011.0 hPa Calm   3.7 km/h 78% 0.0 mm CLR
05:54 25.6 °C 21.5 °C 1011.0 hPa Calm   5.6 km/h 78% 0.0 mm CLR
05:59 25.6 °C 21.5 °C 1011.0 hPa NE 3.2 km/h 7.4 km/h 78% 0.0 mm CLR
06:04 25.6 °C 21.9 °C 1011.0 hPa NNW 3.2 km/h 5.6 km/h 80% 0.0 mm CLR
06:09 25.6 °C 22.3 °C 1011.0 hPa NNW 3.9 km/h 7.4 km/h 82% 0.0 mm CLR
06:14 25.6 °C 22.7 °C 1011.0 hPa ENE 3.9 km/h 9.3 km/h 84% 0.0 mm CLR
06:19 25.4 °C 22.7 °C 1010.6 hPa NNE 6.9 km/h 16.7 km/h 85% 0.0 mm CLR
06:24 25.3 °C 23.0 °C 1010.6 hPa ESE 6.9 km/h 8.7 km/h 87% 0.0 mm CLR
06:29 25.2 °C 22.9 °C 1010.6 hPa East 7.6 km/h 5.6 km/h 87% 0.0 mm CLR
06:34 25.1 °C 22.6 °C 1011.2 hPa NNE 7.6 km/h 9.3 km/h 86% 0.0 mm CLR
06:39 24.9 °C 22.2 °C 1011.2 hPa SE 5.8 km/h 9.3 km/h 85% 0.0 mm CLR
06:44 24.8 °C 22.1 °C 1011.2 hPa NE 5.8 km/h 7.4 km/h 85% 0.0 mm CLR
06:49 24.8 °C 21.9 °C 1011.3 hPa ENE 5.0 km/h 5.6 km/h 84% 0.0 mm CLR
06:54 24.7 °C 21.8 °C 1011.3 hPa SE 5.0 km/h 3.9 km/h 84% 0.0 mm CLR
06:59 24.8 °C 22.1 °C 1011.3 hPa ENE 3.2 km/h 2.3 km/h 85% 0.0 mm CLR
07:04 24.8 °C 22.1 °C 1011.4 hPa ENE 3.2 km/h   85% 0.0 mm CLR
07:09 24.9 °C 22.2 °C 1011.4 hPa Calm     85% 0.0 mm CLR
07:14 24.9 °C 22.2 °C 1011.4 hPa Calm     85% 0.0 mm CLR
07:19 25.1 °C 22.4 °C 1011.8 hPa NW 2.3 km/h 3.7 km/h 85% 0.0 mm CLR
07:24 25.1 °C 22.2 °C 1011.8 hPa NW 2.3 km/h 4.7 km/h 84% 0.0 mm CLR
07:29 25.2 °C 22.5 °C 1011.8 hPa NW 2.3 km/h   85% 0.0 mm CLR
07:34 25.2 °C 22.5 °C 1011.9 hPa NW 2.3 km/h   85% 0.0 mm CLR
07:39 25.3 °C 22.6 °C 1011.9 hPa NE 2.3 km/h 7.4 km/h 85% 0.0 mm CLR
07:44 25.3 °C 22.6 °C 1011.9 hPa North 2.3 km/h 3.7 km/h 85% 0.0 mm CLR
07:49 25.3 °C 22.4 °C 1012.0 hPa NNW 3.2 km/h 7.4 km/h 84% 0.0 mm CLR
07:54 25.3 °C 22.4 °C 1012.0 hPa NNW 3.2 km/h 3.7 km/h 84% 0.0 mm CLR
07:59 25.3 °C 22.4 °C 1012.0 hPa NNW 2.9 km/h 3.7 km/h 84% 0.0 mm CLR
08:04 25.3 °C 22.6 °C 1011.9 hPa NNW 2.9 km/h 3.7 km/h 85% 0.0 mm CLR
08:09 25.4 °C 22.7 °C 1011.9 hPa Calm   1.9 km/h 85% 0.0 mm CLR
08:14 25.5 °C 22.8 °C 1011.9 hPa Calm     85% 0.0 mm CLR
08:19 25.6 °C 22.9 °C 1012.0 hPa Calm     85% 0.0 mm CLR
08:24 25.6 °C 22.9 °C 1012.0 hPa Calm   7.4 km/h 85% 0.0 mm CLR
08:29 25.6 °C 22.7 °C 1012.0 hPa ESE 3.9 km/h 9.3 km/h 84% 0.0 mm CLR
08:34 25.5 °C 22.4 °C 1012.2 hPa ESE 3.9 km/h 9.3 km/h 83% 0.0 mm CLR
08:39 25.4 °C 22.5 °C 1012.2 hPa SE 4.7 km/h 5.8 km/h 84% 0.0 mm CLR
08:44 25.5 °C 22.6 °C 1012.2 hPa ESE 4.7 km/h 9.3 km/h 84% 0.0 mm CLR
08:49 25.6 °C 22.5 °C 1012.1 hPa SSE 5.8 km/h 5.6 km/h 83% 0.0 mm CLR
08:54 25.7 °C 22.8 °C 1012.1 hPa ESE 5.8 km/h 5.6 km/h 84% 0.0 mm CLR
08:59 25.9 °C 23.0 °C 1012.1 hPa SW 3.2 km/h 5.6 km/h 84% 0.0 mm CLR
09:04 26.1 °C 23.2 °C 1012.4 hPa South 3.2 km/h 7.4 km/h 84% 0.0 mm CLR
09:09 26.1 °C 23.2 °C 1012.4 hPa SSW 3.2 km/h 2.3 km/h 84% 0.0 mm CLR
09:14 26.2 °C 23.1 °C 1012.4 hPa ESE 3.2 km/h 9.3 km/h 83% 0.0 mm CLR
09:19 26.3 °C 23.4 °C 1012.5 hPa East 4.7 km/h 5.6 km/h 84% 0.0 mm CLR
09:24 26.4 °C 23.5 °C 1012.5 hPa NE 4.7 km/h 5.6 km/h 84% 0.0 mm CLR
09:29 26.6 °C 23.7 °C 1012.5 hPa North 3.2 km/h 5.6 km/h 84% 0.0 mm CLR
09:34 26.7 °C 23.6 °C 1012.1 hPa North 3.2 km/h 3.7 km/h 83% 0.0 mm CLR
09:39 26.8 °C 23.7 °C 1012.1 hPa North 2.9 km/h 7.4 km/h 83% 0.0 mm CLR
09:44 26.9 °C 23.8 °C 1012.1 hPa NW 2.9 km/h 5.6 km/h 83% 0.0 mm CLR
09:49 27.0 °C 23.9 °C 1012.0 hPa NE 3.9 km/h 7.4 km/h 83% 0.0 mm CLR
09:54 27.3 °C 23.9 °C 1012.0 hPa ENE 3.9 km/h 5.6 km/h 82% 0.0 mm CLR
09:59 27.4 °C 23.8 °C 1012.0 hPa WNW 3.2 km/h 7.4 km/h 81% 0.0 mm CLR
10:04 27.6 °C 23.8 °C 1012.0 hPa SE 3.2 km/h 5.8 km/h 80% 0.0 mm CLR
10:09 27.8 °C 23.8 °C 1012.0 hPa NW 3.2 km/h 4.7 km/h 79% 0.0 mm CLR
10:14 28.0 °C 23.8 °C 1012.0 hPa SE 3.2 km/h 7.4 km/h 78% 0.0 mm CLR
10:19 28.2 °C 24.0 °C 1011.9 hPa SSE 3.9 km/h 6.4 km/h 78% 0.0 mm CLR
10:24 28.4 °C 24.0 °C 1011.9 hPa ENE 3.9 km/h 7.4 km/h 77% 0.0 mm CLR
10:29 28.4 °C 23.8 °C 1011.9 hPa North 4.7 km/h 9.3 km/h 76% 0.0 mm CLR
10:34 28.4 °C 23.8 °C 1011.8 hPa North 4.7 km/h 5.6 km/h 76% 0.0 mm CLR
10:39 28.6 °C 23.7 °C 1011.8 hPa NNE 3.2 km/h 7.4 km/h 75% 0.0 mm CLR
10:44 28.7 °C 23.8 °C 1011.8 hPa NNE 3.2 km/h 7.4 km/h 75% 0.0 mm CLR
10:49 28.9 °C 23.8 °C 1012.0 hPa ENE 3.9 km/h 5.6 km/h 74% 0.0 mm CLR
10:54 29.1 °C 24.0 °C 1012.0 hPa SSE 3.9 km/h 9.3 km/h 74% 0.0 mm CLR
10:59 28.9 °C 23.8 °C 1012.0 hPa ESE 5.0 km/h 11.1 km/h 74% 0.0 mm CLR
11:04 28.9 °C 23.8 °C 1012.0 hPa SSE 5.0 km/h 11.1 km/h 74% 0.0 mm CLR
11:09 29.0 °C 23.7 °C 1012.0 hPa ESE 6.4 km/h 12.2 km/h 73% 0.0 mm CLR
11:14 28.9 °C 23.3 °C 1012.0 hPa ENE 6.4 km/h 13.0 km/h 72% 0.0 mm CLR
11:19 29.0 °C 23.7 °C 1012.1 hPa ESE 7.6 km/h 11.1 km/h 73% 0.0 mm CLR
11:24 29.2 °C 23.8 °C 1012.1 hPa ESE 7.6 km/h 5.6 km/h 73% 0.0 mm CLR
11:29 29.5 °C 23.7 °C 1012.1 hPa East 5.8 km/h 11.1 km/h 71% 0.0 mm CLR
11:34 29.4 °C 23.6 °C 1012.1 hPa East 5.8 km/h 3.7 km/h 71% 0.0 mm CLR
11:39 29.7 °C 23.9 °C 1012.1 hPa ENE 5.0 km/h 9.3 km/h 71% 0.0 mm CLR
11:44 29.8 °C 23.5 °C 1012.1 hPa ENE 5.0 km/h 10.0 km/h 69% 0.0 mm CLR
11:49 29.7 °C 23.7 °C 1012.2 hPa ESE 6.9 km/h 5.6 km/h 70% 0.0 mm CLR
11:54 29.7 °C 23.2 °C 1012.2 hPa ENE 6.9 km/h 11.1 km/h 68% 0.0 mm CLR
11:59 29.8 °C 23.3 °C 1012.2 hPa WNW 6.4 km/h 11.1 km/h 68% 0.0 mm CLR
12:04 30.0 °C 23.2 °C 1012.1 hPa NE 6.4 km/h 9.3 km/h 67% 0.0 mm CLR
12:09 30.3 °C 23.0 °C 1012.1 hPa North 5.0 km/h 13.0 km/h 65% 0.0 mm CLR
12:14 30.4 °C 22.8 °C 1012.1 hPa North 5.0 km/h 9.3 km/h 64% 0.0 mm CLR
12:19 30.6 °C 22.8 °C 1012.0 hPa NW 5.8 km/h 5.6 km/h 63% 0.0 mm CLR
12:24 30.6 °C 22.2 °C 1012.0 hPa NNW 5.8 km/h 5.6 km/h 61% 0.0 mm CLR
12:29 30.9 °C 22.5 °C 1012.0 hPa East 5.0 km/h 11.1 km/h 61% 0.0 mm CLR
12:34 31.0 °C 22.3 °C 1011.8 hPa SE 5.0 km/h 7.4 km/h 60% 0.0 mm CLR
12:39 31.0 °C 22.3 °C 1011.8 hPa NNE 5.0 km/h 9.5 km/h 60% 0.0 mm CLR
12:44 31.1 °C 22.2 °C 1011.8 hPa NNE 5.0 km/h 9.3 km/h 59% 0.0 mm CLR
12:49 31.3 °C 21.8 °C 1011.7 hPa North 5.8 km/h 11.1 km/h 57% 0.0 mm CLR
12:54 31.4 °C 21.8 °C 1011.7 hPa ENE 5.8 km/h 13.0 km/h 57% 0.0 mm CLR
12:59 31.6 °C 21.8 °C 1011.7 hPa North 6.9 km/h 7.6 km/h 56% 0.0 mm CLR
13:04 31.7 °C 21.8 °C 1011.6 hPa NE 6.9 km/h 5.6 km/h 56% 0.0 mm CLR
13:09 31.9 °C 21.7 °C 1011.6 hPa WSW 4.7 km/h 7.4 km/h 55% 0.0 mm CLR
13:14 32.1 °C 21.0 °C 1011.6 hPa North 4.7 km/h 14.8 km/h 52% 0.0 mm CLR
13:19 32.2 °C 20.1 °C 1011.3 hPa ESE 5.8 km/h 3.7 km/h 49% 0.0 mm CLR
13:24 32.4 °C 21.3 °C 1011.3 hPa SW 5.8 km/h 7.4 km/h 52% 0.0 mm CLR
13:29 32.7 °C 21.6 °C 1011.3 hPa NNE 4.7 km/h 9.3 km/h 52% 0.0 mm CLR
13:34 32.9 °C 20.1 °C 1011.1 hPa ENE 4.7 km/h 14.0 km/h 47% 0.0 mm CLR
13:39 32.9 °C 20.1 °C 1011.1 hPa NE 7.6 km/h 11.9 km/h 47% 0.0 mm CLR
13:44 33.1 °C 20.9 °C 1011.1 hPa NE 7.6 km/h 11.1 km/h 49% 0.0 mm CLR
13:49 32.9 °C 20.4 °C 1010.9 hPa ENE 8.4 km/h 16.7 km/h 48% 0.0 mm CLR
13:54 33.1 °C 20.9 °C 1010.9 hPa NE 8.4 km/h 20.4 km/h 49% 0.0 mm CLR
13:59 33.2 °C 21.1 °C 1010.9 hPa North 6.9 km/h 9.3 km/h 49% 0.0 mm CLR
14:04 33.4 °C 21.2 °C 1010.6 hPa NNE 6.9 km/h 13.7 km/h 49% 0.0 mm CLR
14:09 33.7 °C 20.5 °C 1010.6 hPa NE 8.7 km/h 14.8 km/h 46% 0.0 mm CLR
14:14 33.7 °C 20.5 °C 1010.6 hPa East 8.7 km/h 11.1 km/h 46% 0.0 mm CLR
14:19 33.9 °C 20.7 °C 1010.5 hPa ENE 8.7 km/h 14.8 km/h 46% 0.0 mm CLR
14:24 34.1 °C 21.2 °C 1010.5 hPa ENE 8.7 km/h 9.3 km/h 47% 0.0 mm CLR
14:29 34.2 °C 21.3 °C 1010.5 hPa NNW 7.6 km/h 14.8 km/h 47% 0.0 mm CLR
14:34 34.2 °C 21.6 °C 1010.4 hPa ENE 7.6 km/h 20.4 km/h 48% 0.0 mm CLR
14:39 34.2 °C 21.6 °C 1010.4 hPa NNE 10.0 km/h 20.4 km/h 48% 0.0 mm CLR
14:44 34.2 °C 21.9 °C 1010.4 hPa NE 10.0 km/h 11.1 km/h 49% 0.0 mm CLR
14:49 34.3 °C 22.4 °C 1010.2 hPa East 13.0 km/h 14.8 km/h 50% 0.0 mm CLR
14:54 34.0 °C 23.1 °C 1010.2 hPa ESE 13.0 km/h 20.4 km/h 53% 0.0 mm CLR
14:59 33.9 °C 23.0 °C 1010.2 hPa NE 13.0 km/h 16.7 km/h 53% 0.0 mm CLR
15:04 33.8 °C 22.9 °C 1010.0 hPa NE 13.0 km/h 13.0 km/h 53% 0.0 mm CLR
15:09 33.7 °C 22.8 °C 1010.0 hPa NNE 12.2 km/h 25.9 km/h 53% 0.0 mm CLR
15:14 33.6 °C 23.0 °C 1010.0 hPa ENE 12.2 km/h 22.2 km/h 54% 0.0 mm CLR
15:19 33.4 °C 22.8 °C 1009.9 hPa ENE 15.6 km/h 18.5 km/h 54% 0.0 mm CLR
15:24 33.4 °C 22.8 °C 1009.9 hPa ENE 15.6 km/h 20.4 km/h 54% 0.0 mm CLR
15:29 33.6 °C 23.0 °C 1009.9 hPa NNE 12.2 km/h 11.9 km/h 54% 0.0 mm CLR
15:34 33.9 °C 23.0 °C 1009.8 hPa NE 12.2 km/h 22.2 km/h 53% 0.0 mm CLR
15:39 33.9 °C 23.3 °C 1009.8 hPa NE 11.9 km/h 22.0 km/h 54% 0.0 mm CLR
15:44 33.8 °C 23.2 °C 1009.8 hPa SE 11.9 km/h 18.5 km/h 54% 0.0 mm CLR
15:49 34.1 °C 23.2 °C 1009.7 hPa NE 13.0 km/h 18.5 km/h 53% 0.0 mm CLR
15:54 33.9 °C 23.3 °C 1009.7 hPa East 13.0 km/h 16.7 km/h 54% 0.0 mm CLR
15:59 33.9 °C 23.0 °C 1009.7 hPa SE 11.9 km/h 18.5 km/h 53% 0.0 mm CLR
16:04 33.8 °C 22.9 °C 1009.6 hPa ESE 11.9 km/h 16.7 km/h 53% 0.0 mm CLR
16:09 33.6 °C 23.0 °C 1009.6 hPa ESE 13.0 km/h 22.2 km/h 54% 0.0 mm CLR
16:14 33.8 °C 22.9 °C 1009.6 hPa East 13.0 km/h 22.2 km/h 53% 0.0 mm CLR
16:19 33.6 °C 22.7 °C 1009.5 hPa SSE 13.7 km/h 25.9 km/h 53% 0.0 mm CLR
16:24 33.7 °C 22.8 °C 1009.5 hPa SE 13.7 km/h 22.2 km/h 53% 0.0 mm CLR
16:29 33.7 °C 22.5 °C 1009.5 hPa NNE 11.9 km/h 13.0 km/h 52% 0.0 mm CLR
16:34 33.7 °C 22.2 °C 1009.4 hPa East 11.9 km/h 9.3 km/h 51% 0.0 mm CLR
16:39 33.8 °C 22.3 °C 1009.4 hPa SE 6.9 km/h 18.5 km/h 51% 0.0 mm CLR
16:44 33.8 °C 22.3 °C 1009.4 hPa ENE 6.9 km/h 11.1 km/h 51% 0.0 mm CLR
16:49 33.8 °C 21.3 °C 1009.3 hPa WNW 7.6 km/h 11.1 km/h 48% 0.0 mm CLR
16:54 33.9 °C 21.7 °C 1009.3 hPa NE 7.6 km/h 24.1 km/h 49% 0.0 mm CLR
16:59 34.1 °C 21.6 °C 1009.3 hPa ENE 11.1 km/h 21.7 km/h 48% 0.0 mm CLR
17:04 33.8 °C 21.6 °C 1009.1 hPa NE 11.1 km/h 24.1 km/h 49% 0.0 mm CLR
17:09 33.6 °C 21.7 °C 1009.1 hPa NE 16.4 km/h 22.2 km/h 50% 0.0 mm CLR
17:14 33.5 °C 21.3 °C 1009.1 hPa ESE 16.4 km/h 22.2 km/h 49% 0.0 mm CLR
17:19 33.6 °C 21.7 °C 1009.1 hPa ENE 16.4 km/h 24.1 km/h 50% 0.0 mm CLR
17:24 33.4 °C 21.6 °C 1009.1 hPa NE 16.4 km/h 25.9 km/h 50% 0.0 mm CLR
17:29 33.4 °C 21.9 °C 1009.1 hPa ENE 16.4 km/h 20.4 km/h 51% 0.0 mm CLR
17:34 33.5 °C 21.3 °C 1009.0 hPa East 16.4 km/h 25.9 km/h 49% 0.0 mm CLR
17:39 33.4 °C 21.2 °C 1009.0 hPa NNE 16.1 km/h 27.8 km/h 49% 0.0 mm CLR
17:44 33.4 °C 21.6 °C 1009.0 hPa NE 16.1 km/h 27.8 km/h 50% 0.0 mm CLR
17:49 33.4 °C 21.6 °C 1008.9 hPa East 16.1 km/h 25.9 km/h 50% 0.0 mm CLR
17:54 33.4 °C 21.6 °C 1008.9 hPa NE 16.1 km/h 20.4 km/h 50% 0.0 mm CLR
17:59 33.4 °C 21.6 °C 1008.9 hPa NE 16.1 km/h 18.5 km/h 50% 0.0 mm CLR
18:04 33.4 °C 21.9 °C 1008.8 hPa North 16.1 km/h 29.6 km/h 51% 0.0 mm CLR
18:09 33.1 °C 22.6 °C 1008.8 hPa NE 14.8 km/h 29.6 km/h 54% 0.0 mm CLR
18:14 32.8 °C 22.6 °C 1008.8 hPa ENE 14.8 km/h 27.0 km/h 55% 0.0 mm CLR
18:19 32.8 °C 22.6 °C 1008.6 hPa North 18.0 km/h 25.9 km/h 55% 0.0 mm CLR
18:24 32.7 °C 22.5 °C 1008.6 hPa NNE 18.0 km/h 22.2 km/h 55% 0.0 mm CLR
18:29 32.7 °C 22.5 °C 1008.6 hPa NE 16.4 km/h 28.2 km/h 55% 0.0 mm CLR
18:34 32.6 °C 22.4 °C 1008.6 hPa NNE 16.4 km/h 31.5 km/h 55% 0.0 mm CLR
18:39 32.7 °C 22.5 °C 1008.6 hPa NE 19.0 km/h 22.2 km/h 55% 0.0 mm CLR
18:44 32.5 °C 22.6 °C 1008.6 hPa NE 19.0 km/h 25.9 km/h 56% 0.0 mm CLR
18:49 32.2 °C 22.6 °C 1008.5 hPa NNE 17.2 km/h 24.1 km/h 57% 0.0 mm CLR
18:54 32.2 °C 22.6 °C 1008.5 hPa NE 17.2 km/h 22.0 km/h 57% 0.0 mm CLR
18:59 32.1 °C 22.5 °C 1008.5 hPa ENE 15.6 km/h 20.4 km/h 57% 0.0 mm CLR
19:04 32.1 °C 22.5 °C 1008.6 hPa NE 15.6 km/h 28.6 km/h 57% 0.0 mm CLR
19:09 31.8 °C 22.5 °C 1008.6 hPa NE 16.4 km/h 24.1 km/h 58% 0.0 mm CLR
19:14 31.8 °C 22.2 °C 1008.6 hPa NNE 16.4 km/h 24.1 km/h 57% 0.0 mm CLR
19:19 31.8 °C 22.5 °C 1008.7 hPa NNE 17.2 km/h 25.9 km/h 58% 0.0 mm CLR
19:24 31.7 °C 22.4 °C 1008.7 hPa NE 17.2 km/h 27.8 km/h 58% 0.0 mm CLR
19:29 31.5 °C 22.2 °C 1008.7 hPa ENE 18.0 km/h 25.9 km/h 58% 0.0 mm CLR
19:34 31.3 °C 22.3 °C 1008.7 hPa NNE 18.0 km/h 25.9 km/h 59% 0.0 mm CLR
19:39 31.3 °C 22.3 °C 1008.7 hPa NNE 18.0 km/h 24.5 km/h 59% 0.0 mm CLR
19:44 31.1 °C 22.4 °C 1008.7 hPa NE 18.0 km/h 24.1 km/h 60% 0.0 mm CLR
19:49 31.0 °C 22.3 °C 1008.9 hPa NE 18.3 km/h 18.5 km/h 60% 0.0 mm CLR
19:54 31.0 °C 22.3 °C 1008.9 hPa NNE 18.3 km/h 24.1 km/h 60% 0.0 mm CLR
19:59 30.8 °C 22.4 °C 1008.9 hPa NE 15.6 km/h 22.2 km/h 61% 0.0 mm CLR
20:04 30.8 °C 22.7 °C 1009.1 hPa NE 15.6 km/h 20.4 km/h 62% 0.0 mm CLR
20:09 30.8 °C 22.9 °C 1009.1 hPa NNE 14.0 km/h 24.1 km/h 63% 0.0 mm CLR
20:14 30.6 °C 23.0 °C 1009.1 hPa NE 14.0 km/h 22.2 km/h 64% 0.0 mm CLR
20:19 30.3 °C 23.0 °C 1009.2 hPa NE 14.8 km/h 24.1 km/h 65% 0.0 mm CLR
20:24 30.2 °C 22.9 °C 1009.2 hPa NE 14.8 km/h 23.3 km/h 65% 0.0 mm CLR
20:29 30.1 °C 23.1 °C 1009.2 hPa NNE 16.1 km/h 20.4 km/h 66% 0.0 mm CLR
20:34 29.9 °C 22.8 °C 1009.3 hPa NNW 16.1 km/h 22.2 km/h 66% 0.0 mm CLR
20:39 30.0 °C 22.9 °C 1009.3 hPa NNE 13.7 km/h 16.7 km/h 66% 0.0 mm CLR
20:44 29.8 °C 23.0 °C 1009.3 hPa NE 13.7 km/h 25.9 km/h 67% 0.0 mm CLR
20:49 29.6 °C 22.8 °C 1009.5 hPa NNE 15.6 km/h 22.2 km/h 67% 0.0 mm CLR
20:54 29.6 °C 22.6 °C 1009.5 hPa NE 15.6 km/h 16.7 km/h 66% 0.0 mm CLR
20:59 29.5 °C 22.5 °C 1009.5 hPa North 13.7 km/h 20.4 km/h 66% 0.0 mm CLR
21:04 29.4 °C 22.4 °C 1009.7 hPa NE 13.7 km/h 20.9 km/h 66% 0.0 mm CLR
21:09 29.4 °C 22.1 °C 1009.7 hPa NE 14.8 km/h 20.4 km/h 65% 0.0 mm CLR
21:14 29.3 °C 22.1 °C 1009.7 hPa NE 14.8 km/h 18.5 km/h 65% 0.0 mm CLR
21:19 29.3 °C 22.3 °C 1009.8 hPa North 13.0 km/h 18.5 km/h 66% 0.0 mm CLR
21:24 29.2 °C 22.4 °C 1009.8 hPa ENE 13.0 km/h 16.7 km/h 67% 0.0 mm CLR
21:29 29.1 °C 22.3 °C 1009.8 hPa NE 12.2 km/h 20.4 km/h 67% 0.0 mm CLR
21:34 29.0 °C 22.2 °C 1010.1 hPa NE 12.2 km/h 19.8 km/h 67% 0.0 mm CLR
21:39 28.9 °C 22.2 °C 1010.1 hPa ENE 13.7 km/h 20.4 km/h 67% 0.0 mm CLR
21:44 28.9 °C 22.4 °C 1010.1 hPa NE 13.7 km/h 18.5 km/h 68% 0.0 mm CLR
21:49 28.8 °C 22.3 °C 1010.3 hPa NNE 11.9 km/h 14.8 km/h 68% 0.0 mm CLR
21:54 28.8 °C 22.3 °C 1010.3 hPa NE 11.9 km/h 14.8 km/h 68% 0.0 mm CLR
21:59 28.7 °C 22.4 °C 1010.3 hPa ENE 11.1 km/h 14.8 km/h 69% 0.0 mm CLR
22:04 28.7 °C 22.2 °C 1010.5 hPa ENE 11.1 km/h 14.8 km/h 68% 0.0 mm CLR
22:09 28.7 °C 22.4 °C 1010.5 hPa NE 9.5 km/h 14.8 km/h 69% 0.0 mm CLR
22:14 28.7 °C 22.4 °C 1010.5 hPa NNE 9.5 km/h 14.8 km/h 69% 0.0 mm CLR
22:19 28.6 °C 22.1 °C 1010.8 hPa NE 8.4 km/h 14.8 km/h 68% 0.0 mm CLR
22:24 28.6 °C 22.1 °C 1010.8 hPa NE 8.4 km/h 11.1 km/h 68% 0.0 mm CLR
22:29 28.5 °C 22.0 °C 1010.8 hPa NE 8.7 km/h 14.8 km/h 68% 0.0 mm CLR
22:34 28.4 °C 21.9 °C 1011.0 hPa NE 8.7 km/h 11.1 km/h 68% 0.0 mm CLR
22:39 28.4 °C 21.7 °C 1011.0 hPa NNE 8.4 km/h 11.1 km/h 67% 0.0 mm CLR
22:44 28.4 °C 21.7 °C 1011.0 hPa ENE 8.4 km/h 14.0 km/h 67% 0.0 mm CLR
22:49 28.4 °C 21.4 °C 1011.1 hPa NE 8.4 km/h 13.0 km/h 66% 0.0 mm CLR
22:54 28.4 °C 21.4 °C 1011.1 hPa NNE 8.4 km/h 8.4 km/h 66% 0.0 mm CLR
22:59 28.4 °C 21.4 °C 1011.1 hPa ENE 8.4 km/h 11.1 km/h 66% 0.0 mm CLR
23:04 28.2 °C 21.2 °C 1011.4 hPa NE 8.4 km/h 11.1 km/h 66% 0.0 mm CLR
23:09 28.1 °C 21.4 °C 1011.4 hPa NNE 8.7 km/h 10.0 km/h 67% 0.0 mm CLR
23:14 27.9 °C 21.7 °C 1011.4 hPa NE 8.7 km/h 13.0 km/h 69% 0.0 mm CLR
23:19 27.7 °C 21.7 °C 1011.5 hPa NNE 8.7 km/h 9.3 km/h 70% 0.0 mm CLR
23:24 27.6 °C 21.6 °C 1011.5 hPa NE 8.7 km/h 11.1 km/h 70% 0.0 mm CLR
23:29 27.4 °C 21.7 °C 1011.5 hPa NNE 8.7 km/h 13.0 km/h 71% 0.0 mm CLR
23:34 27.4 °C 21.7 °C 1011.4 hPa NE 8.7 km/h 9.3 km/h 71% 0.0 mm CLR
23:39 27.4 °C 21.7 °C 1011.4 hPa NE 6.9 km/h 9.3 km/h 71% 0.0 mm CLR
23:44 27.4 °C 21.9 °C 1011.4 hPa ENE 6.9 km/h 9.5 km/h 72% 0.0 mm CLR
23:49 27.3 °C 22.1 °C 1011.5 hPa NNE 4.7 km/h 7.4 km/h 73% 0.0 mm CLR
23:54 27.3 °C 22.1 °C 1011.5 hPa NE 4.7 km/h 9.3 km/h 73% 0.0 mm CLR
23:59 27.2 °C 22.2 °C 1011.5 hPa NE 6.9 km/h 10.0 km/h 74% 0.0 mm CLR
Murcia-Puente Tocinos, España
Compliments of Weather Underground - 3.25 mb

La estación de MeteoMurcia.com, publica sus datos en los siguientes proyectos:

Weather Underground PWS IMURCIAP2 Meteoclimatic www.awekas.at

W3Counter
Web Analytics